Tracking 20721 objects as of 1-Jun-2020
HD Live streaming from Space Station
objects crossing your sky now

FENGYUN 1C DEB

Track FENGYUN 1C DEB now!
10-day predictions


NORAD ID: 35165
Int'l Code: 1999-025DMV
Perigee: 822.8 km
Apogee: 869.0 km
Inclination: 99.0 °
Period: 101.7 minutes
Semi major axis: 7216 km
RCS: 0.0024 m2 (small)
Launch date: May 10, 1999
Source: People's Republic of China (PRC)
Launch site: Taiyaun Space Center, China (TSC)

Note: This is SATELLITE DEBRIS
aabbcc
Your satellite tracking list
Your tracking list is empty




NASA's NSSDC Master Catalog

Two Line Element Set (TLE):
1 35165U 99025DMV 20151.56654367 +.00000556 +00000-0 +30339-3 0  9993
2 35165 098.9886 193.8188 0031963 106.0938 254.3758 14.16039828609930
Source of the keplerian elements: AFSPC